Location: Unspecified
(0.0000°N, 0.0000°E)
Time: 10:03:00
(UTC+00:00)

Vanguard 3 - Pass Details

Date: 10 October 2022
Orbit: 509 x 3255 km, 33.3° (Epoch: 29 November)

Event Time Altitude Azimuth Distance (km) Brightness Sun altitude
Rises 23:07:39 0° 223° (SW) 6,970 12.1 -78.0°
Reaches altitude 10° 23:13:49 10° 213° (SSW) 5,630 11.5 -79.2°
Enters shadow 23:15:26 13° 209° (SSW) 5,277 11.3 -79.5°
